,,PA_Meas_PMT16A,,PR_Meas_QMR101_102,,RH_Meas_QMH101,,SR_Meas_QMS101,,TA_Meas_QMH101,,GenWind,,GenWind,
time,status,PA,status,PR,status,RH,status,SR,status,TA,status,DirAvg,status,SpdAvg,
2010-10-06, 00:00:05,VALID,918.287,VALID,0,VALID,95.4223,VALID,0,VALID,18.455,VALID,139,VALID,1.23789,
2010-10-06, 00:01:05,VALID,918.23,VALID,0,VALID,95.4604,VALID,0,VALID,18.4341,VALID,139,VALID,1.17461,
2010-10-06, 00:02:05,VALID,918.23,VALID,0,VALID,95.4757,VALID,0,VALID,18.4355,VALID,139,VALID,1.35,
2010-10-06, 00:03:05,VALID,918.213,VALID,0,VALID,95.5367,VALID,0,VALID,18.455,VALID,139,VALID,0.864453,
2010-10-06, 00:04:05,VALID,918.192,VALID,0,VALID,95.6434,VALID,0,VALID,18.455,VALID,139,VALID,0.688672,
2010-10-06, 00:05:05,VALID,918.186,VALID,0,VALID,95.7044,VALID,0,VALID,18.455,VALID,139,VALID,0.46875,
2010-10-06, 00:06:05,VALID,918.155,VALID,0,VALID,95.7196,VALID,0,VALID,18.4355,VALID,139,VALID,0.901172,
2010-10-06, 00:07:05,VALID,918.131,VALID,0,VALID,95.7501,VALID,0,VALID,18.4341,VALID,139,VALID,0.823438,
2010-10-06, 00:08:05,VALID,918.114,VALID,0,VALID,95.7425,VALID,0,VALID,18.4341,VALID,155,VALID,0.925781,
2010-10-06, 00:09:05,VALID,918.095,VALID,0,VALID,95.7958,VALID,0,VALID,18.4745,VALID,155,VALID,0.79375,
2010-10-06, 00:10:05,VALID,918.07,VALID,0,VALID,95.7272,VALID,0,VALID,18.4745,VALID,155,VALID,0.921875,
2010-10-06, 00:11:05,VALID,918.045,VALID,0,VALID,95.7501,VALID,0,VALID,18.455,VALID,155,VALID,0.845312,
2010-10-06, 00:12:05,VALID,918.066,VALID,0,VALID,95.7958,VALID,0,VALID,18.4745,VALID,155,VALID,0.679688,
2010-10-06, 00:13:05,VALID,918.037,VALID,0,VALID,95.7272,VALID,0,VALID,18.494,VALID,155,VALID,0.69375,
2010-10-06, 00:14:05,VALID,918.054,VALID,0,VALID,95.6739,VALID,0,VALID,18.494,VALID,155,VALID,0.644141,
2010-10-06, 00:15:05,VALID,918.024,VALID,0,VALID,95.6434,VALID,0,VALID,18.4926,VALID,155,VALID,0.363281,
2010-10-06, 00:16:05,VALID,918.029,VALID,0,VALID,95.5824,VALID,0,VALID,18.4926,VALID,155,VALID,0.565234,
2010-10-06, 00:17:05,VALID,918.006,VALID,0,VALID,95.5595,VALID,0,VALID,18.533,VALID,155,VALID,0.0679687,
2010-10-06, 00:18:05,VALID,917.971,VALID,0,VALID,95.6434,VALID,0,VALID,18.5525,VALID,155,VALID,0,
2010-10-06, 00:19:05,VALID,917.991,VALID,0,VALID,95.6586,VALID,0,VALID,18.533,VALID,155,VALID,0,
2010-10-06, 00:20:05,VALID,917.96,VALID,0,VALID,95.712,VALID,0,VALID,18.5525,VALID,155,VALID,0,
2010-10-06, 00:21:05,VALID,917.954,VALID,0,VALID,95.8187,VALID,0,VALID,18.572,VALID,155,VALID,0.0828125,
2010-10-06, 00:22:05,VALID,917.932,VALID,0,VALID,95.9102,VALID,0,VALID,18.5914,VALID,155,VALID,0,
2010-10-06, 00:23:05,VALID,917.912,VALID,0,VALID,96.0017,VALID,0.107441,VALID,18.5511,VALID,155,VALID,0,
2010-10-06, 00:24:05,VALID,917.912,VALID,0,VALID,96.1236,VALID,0,VALID,18.59,VALID,155,VALID,0,
2010-10-06, 00:25:05,VALID,917.907,VALID,0,VALID,96.2151,VALID,0,VALID,18.6304,VALID,155,VALID,0,
2010-10-06, 00:26:05,VALID,917.901,VALID,0.2,VALID,96.2837,VALID,0,VALID,18.6095,VALID,155,VALID,0,
2010-10-06, 00:27:05,VALID,917.868,VALID,0,VALID,96.3371,VALID,0,VALID,18.6095,VALID,155,VALID,0,
2010-10-06, 00:28:05,VALID,917.856,VALID,0,VALID,96.3829,VALID,0,VALID,18.6304,VALID,155,VALID,0,
2010-10-06, 00:29:05,VALID,917.854,VALID,0,VALID,96.421,VALID,0,VALID,18.6304,VALID,155,VALID,0,
2010-10-06, 00:30:05,VALID,917.853,VALID,0,VALID,96.3981,VALID,0,VALID,18.6304,VALID,155,VALID,0,
2010-10-06, 00:31:05,VALID,917.827,VALID,0,VALID,96.3295,VALID,0,VALID,18.5914,VALID,155,VALID,0,
2010-10-06, 00:32:05,VALID,917.839,VALID,0,VALID,96.3752,VALID,0,VALID,18.572,VALID,155,VALID,0,
2010-10-06, 00:33:05,VALID,917.838,VALID,0,VALID,96.4667,VALID,0,VALID,18.572,VALID,155,VALID,0,
2010-10-06, 00:34:05,VALID,917.812,VALID,0,VALID,96.5353,VALID,0,VALID,18.5914,VALID,155,VALID,0,
2010-10-06, 00:35:05,VALID,917.815,VALID,0,VALID,96.4743,VALID,0,VALID,18.5525,VALID,155,VALID,0,
2010-10-06, 00:36:05,VALID,917.824,VALID,0,VALID,96.5124,VALID,0,VALID,18.572,VALID,155,VALID,0,
2010-10-06, 00:37:05,VALID,917.812,VALID,0,VALID,96.5353,VALID,0,VALID,18.5914,VALID,155,VALID,0.504687,
2010-10-06, 00:38:05,VALID,917.779,VALID,0,VALID,96.5124,VALID,0,VALID,18.5914,VALID,155,VALID,0.767187,
2010-10-06, 00:39:05,VALID,917.818,VALID,0,VALID,96.2837,VALID,0,VALID,18.5135,VALID,155,VALID,0.746094,
2010-10-06, 00:40:05,VALID,917.813,VALID,0,VALID,96.2609,VALID,0,VALID,18.4745,VALID,155,VALID,0.714453,
2010-10-06, 00:41:05,VALID,917.823,VALID,0,VALID,96.2456,VALID,0,VALID,18.4341,VALID,155,VALID,0.617578,
2010-10-06, 00:42:05,VALID,917.831,VALID,0,VALID,96.3066,VALID,0,VALID,18.455,VALID,155,VALID,0.278516,
2010-10-06, 00:43:05,VALID,917.818,VALID,0,VALID,96.2914,VALID,0,VALID,18.4355,VALID,155,VALID,0.490234,
2010-10-06, 00:44:05,VALID,917.82,VALID,0,VALID,96.3295,VALID,0,VALID,18.4355,VALID,155,VALID,0.930859,
2010-10-06, 00:45:05,VALID,917.824,VALID,0,VALID,96.3447,VALID,0,VALID,18.416,VALID,155,VALID,0.541016,
2010-10-06, 00:46:05,VALID,917.844,VALID,0,VALID,96.3676,VALID,0,VALID,18.4355,VALID,155,VALID,0.591797,
2010-10-06, 00:47:05,VALID,917.823,VALID,0,VALID,96.4515,VALID,0,VALID,18.4355,VALID,155,VALID,0.283594,
2010-10-06, 00:48:05,VALID,917.796,VALID,0,VALID,96.4743,VALID,0,VALID,18.4355,VALID,155,VALID,0.443359,
2010-10-06, 00:49:05,VALID,917.826,VALID,0,VALID,96.4819,VALID,0,VALID,18.416,VALID,155,VALID,0.769141,
2010-10-06, 00:50:05,VALID,917.811,VALID,0,VALID,96.5124,VALID,0,VALID,18.416,VALID,155,VALID,0.563281,
2010-10-06, 00:51:05,VALID,917.82,VALID,0,VALID,96.5734,VALID,0.107441,VALID,18.3951,VALID,155,VALID,0.559375,
2010-10-06, 00:52:05,VALID,917.833,VALID,0,VALID,96.5811,VALID,0,VALID,18.4355,VALID,155,VALID,0.8,
2010-10-06, 00:53:05,VALID,917.831,VALID,0,VALID,96.6115,VALID,0,VALID,18.455,VALID,155,VALID,0.646094,
2010-10-06, 00:54:05,VALID,917.807,VALID,0,VALID,96.6497,VALID,0,VALID,18.455,VALID,155,VALID,0.508984,
2010-10-06, 00:55:05,VALID,917.835,VALID,0,VALID,96.6954,VALID,0,VALID,18.4954,VALID,155,VALID,0.476172,
2010-10-06, 00:56:05,VALID,917.799,VALID,0,VALID,96.6878,VALID,0,VALID,18.494,VALID,155,VALID,0.120312,
2010-10-06, 00:57:05,VALID,917.77,VALID,0,VALID,96.7183,VALID,0,VALID,18.494,VALID,155,VALID,0.589453,
2010-10-06, 00:58:05,VALID,917.776,VALID,0,VALID,96.703,VALID,0,VALID,18.494,VALID,155,VALID,0.719531,
2010-10-06, 00:59:05,VALID,917.769,VALID,0,VALID,96.7183,VALID,0,VALID,18.5135,VALID,155,VALID,0.517969,
2010-10-06, 01:00:05,VALID,917.778,VALID,0,VALID,96.7411,VALID,0,VALID,18.5525,VALID,155,VALID,0.148047,
2010-10-06, 01:01:04,VALID,917.744,VALID,0,VALID,96.7793,VALID,0,VALID,18.572,VALID,155,VALID,0.324609,
2010-10-06, 01:02:04,VALID,917.767,VALID,0,VALID,96.8021,VALID,0,VALID,18.5914,VALID,155,VALID,0.558984,
2010-10-06, 01:03:04,VALID,917.745,VALID,0,VALID,96.7411,VALID,0,VALID,18.572,VALID,154,VALID,0.687109,
2010-10-06, 01:04:04,VALID,917.743,VALID,0,VALID,96.6954,VALID,0,VALID,18.572,VALID,155,VALID,0.325391,
2010-10-06, 01:05:04,VALID,917.755,VALID,0,VALID,96.7411,VALID,0,VALID,18.5914,VALID,154,VALID,0.482422,
2010-10-06, 01:06:04,VALID,917.781,VALID,0,VALID,96.6725,VALID,0,VALID,18.572,VALID,155,VALID,0.228125,
2010-10-06, 01:07:04,VALID,917.758,VALID,0,VALID,96.6039,VALID,0,VALID,18.572,VALID,154,VALID,0.442969,
2010-10-06, 01:08:04,VALID,917.749,VALID,0,VALID,96.5734,VALID,0,VALID,18.5525,VALID,154,VALID,0.5875,
2010-10-06, 01:09:04,VALID,917.781,VALID,0,VALID,96.6268,VALID,0.107441,VALID,18.5525,VALID,155,VALID,0.383594,
2010-10-06, 01:10:04,VALID,917.766,VALID,0,VALID,96.5887,VALID,0,VALID,18.5525,VALID,154,VALID,0.4,
2010-10-06, 01:11:04,VALID,917.774,VALID,0,VALID,96.5506,VALID,0,VALID,18.533,VALID,155,VALID,0.313281,
2010-10-06, 01:12:04,VALID,917.776,VALID,0,VALID,96.6344,VALID,0,VALID,18.572,VALID,154,VALID,0.0960938,
2010-10-06, 01:13:04,VALID,917.755,VALID,0,VALID,96.6192,VALID,0.107441,VALID,18.5705,VALID,155,VALID,0,
2010-10-06, 01:14:04,VALID,917.737,VALID,0,VALID,96.6573,VALID,0,VALID,18.5914,VALID,155,VALID,0,
2010-10-06, 01:15:04,VALID,917.747,VALID,0,VALID,96.6649,VALID,0,VALID,18.6109,VALID,154,VALID,0.0535156,
2010-10-06, 01:16:04,VALID,917.725,VALID,0,VALID,96.6802,VALID,0,VALID,18.6304,VALID,155,VALID,0.355859,
2010-10-06, 01:17:04,VALID,917.728,VALID,0,VALID,96.6192,VALID,0,VALID,18.6304,VALID,154,VALID,0.565625,
2010-10-06, 01:18:04,VALID,917.672,VALID,0,VALID,96.5734,VALID,0,VALID,18.6109,VALID,154,VALID,0.361719,
2010-10-06, 01:19:04,VALID,917.657,VALID,0,VALID,96.5582,VALID,0,VALID,18.6109,VALID,154,VALID,0.501172,
2010-10-06, 01:20:04,VALID,917.669,VALID,0,VALID,96.5963,VALID,0,VALID,18.6304,VALID,154,VALID,0.148438,
2010-10-06, 01:21:04,VALID,917.662,VALID,0.2,VALID,96.5506,VALID,0,VALID,18.6499,VALID,154,VALID,0.204688,
2010-10-06, 01:22:04,VALID,917.671,VALID,0,VALID,96.5353,VALID,0,VALID,18.6499,VALID,154,VALID,0.526563,
2010-10-06, 01:23:04,VALID,917.69,VALID,0,VALID,96.4133,VALID,0,VALID,18.6499,VALID,154,VALID,0.607422,
2010-10-06, 01:24:04,VALID,917.673,VALID,0,VALID,96.3676,VALID,0,VALID,18.6694,VALID,154,VALID,0.468359,
2010-10-06, 01:25:04,VALID,917.686,VALID,0,VALID,96.3829,VALID,0,VALID,18.6694,VALID,154,VALID,0.236328,
2010-10-06, 01:26:04,VALID,917.684,VALID,0,VALID,96.4438,VALID,0,VALID,18.6889,VALID,154,VALID,0.672266,
2010-10-06, 01:27:04,VALID,917.671,VALID,0,VALID,96.5048,VALID,0,VALID,18.6889,VALID,154,VALID,0.657812,
2010-10-06, 01:28:04,VALID,917.661,VALID,0.2,VALID,96.5582,VALID,0,VALID,18.7279,VALID,154,VALID,0.942187,
2010-10-06, 01:29:04,VALID,917.646,VALID,0,VALID,96.6268,VALID,0,VALID,18.7084,VALID,154,VALID,0.736719,
2010-10-06, 01:30:04,VALID,917.628,VALID,0,VALID,96.6802,VALID,0,VALID,18.7279,VALID,154,VALID,0.601953,
2010-10-06, 01:31:04,VALID,917.593,VALID,0,VALID,96.6573,VALID,0,VALID,18.6889,VALID,17,VALID,0.911719,
2010-10-06, 01:32:04,VALID,917.566,VALID,0,VALID,96.7335,VALID,0,VALID,18.7084,VALID,60,VALID,1.14375,
2010-10-06, 01:33:04,VALID,917.55,VALID,0.2,VALID,96.7488,VALID,0,VALID,18.6889,VALID,66,VALID,0.978125,
2010-10-06, 01:34:04,VALID,917.547,VALID,0,VALID,96.7488,VALID,0,VALID,18.6694,VALID,17,VALID,0.221484,
2010-10-06, 01:35:04,VALID,917.514,VALID,0,VALID,96.8021,VALID,0,VALID,18.6485,VALID,17,VALID,0.662109,
2010-10-06, 01:36:04,VALID,917.472,VALID,0,VALID,96.7869,VALID,0,VALID,18.6499,VALID,17,VALID,1.18945,
2010-10-06, 01:37:04,VALID,917.488,VALID,0.2,VALID,96.8555,VALID,0,VALID,18.6694,VALID,17,VALID,1.09453,
2010-10-06, 01:38:04,VALID,917.453,VALID,0,VALID,96.8326,VALID,0,VALID,18.6304,VALID,17,VALID,1.25312,
2010-10-06, 01:39:04,VALID,917.462,VALID,0,VALID,96.9012,VALID,0,VALID,18.6708,VALID,33,VALID,1.53281,
2010-10-06, 01:40:04,VALID,917.459,VALID,0,VALID,96.8936,VALID,0,VALID,18.6304,VALID,45,VALID,1.66914,
2010-10-06, 01:41:04,VALID,917.426,VALID,0,VALID,96.9394,VALID,0,VALID,18.6304,VALID,34,VALID,1.74688,
2010-10-06, 01:42:04,VALID,917.471,VALID,0,VALID,96.9394,VALID,0,VALID,18.6304,VALID,33,VALID,1.50664,
2010-10-06, 01:43:04,VALID,917.481,VALID,0,VALID,96.9546,VALID,0,VALID,18.6304,VALID,32,VALID,1.33242,
2010-10-06, 01:44:04,VALID,917.484,VALID,0.2,VALID,97.008,VALID,0,VALID,18.6304,VALID,25,VALID,1.38047,
2010-10-06, 01:45:04,VALID,917.469,VALID,0,VALID,97.0003,VALID,0,VALID,18.6304,VALID,23,VALID,1.38633,
2010-10-06, 01:46:04,VALID,917.476,VALID,0,VALID,97.0308,VALID,0,VALID,18.6109,VALID,23,VALID,1.29062,
2010-10-06, 01:47:04,VALID,917.484,VALID,0,VALID,97.0308,VALID,0,VALID,18.6109,VALID,23,VALID,0.854297,
2010-10-06, 01:48:04,VALID,917.482,VALID,0,VALID,97.0461,VALID,0,VALID,18.6109,VALID,23,VALID,1.29688,
2010-10-06, 01:49:04,VALID,917.367,VALID,0,VALID,97.0537,VALID,0,VALID,18.6109,VALID,21,VALID,2.43242,
2010-10-06, 01:50:04,VALID,917.368,VALID,0,VALID,97.0156,VALID,0,VALID,18.5525,VALID,18,VALID,2.025,
2010-10-06, 01:51:04,VALID,917.299,VALID,0,VALID,97.0842,VALID,0,VALID,18.572,VALID,37,VALID,1.95742,
2010-10-06, 01:52:04,VALID,917.342,VALID,0,VALID,97.0766,VALID,0,VALID,18.5914,VALID,9,VALID,1.55234,
2010-10-06, 01:53:04,VALID,917.258,VALID,0.2,VALID,97.0537,VALID,0,VALID,18.5525,VALID,26,VALID,2.77148,
2010-10-06, 01:54:04,VALID,917.281,VALID,0,VALID,97.0842,VALID,0,VALID,18.533,VALID,17,VALID,1.86836,
2010-10-06, 01:55:04,VALID,917.338,VALID,0,VALID,97.1528,VALID,0,VALID,18.5914,VALID,2,VALID,1.80625,
2010-10-06, 01:56:04,VALID,917.359,VALID,0,VALID,97.1452,VALID,0,VALID,18.5914,VALID,13,VALID,2.39805,
2010-10-06, 01:57:04,VALID,917.358,VALID,0,VALID,97.1986,VALID,0,VALID,18.6109,VALID,9,VALID,1.52734,
2010-10-06, 01:58:04,VALID,917.343,VALID,0,VALID,97.2062,VALID,0,VALID,18.6304,VALID,9,VALID,1.48438,
2010-10-06, 01:59:04,VALID,917.344,VALID,0,VALID,97.1299,VALID,0,VALID,18.5914,VALID,17,VALID,2.34336,
2010-10-06, 02:00:04,VALID,917.327,VALID,0,VALID,97.2214,VALID,0,VALID,18.5914,VALID,5,VALID,2.41367,
2010-10-06, 02:01:04,VALID,917.291,VALID,0.2,VALID,97.2443,VALID,0,VALID,18.6499,VALID,18,VALID,2.60469,
2010-10-06, 02:02:04,VALID,917.372,VALID,0,VALID,97.229,VALID,0,VALID,18.6694,VALID,16,VALID,0.908984,
2010-10-06, 02:03:04,VALID,917.343,VALID,0,VALID,97.1909,VALID,0,VALID,18.6889,VALID,16,VALID,1.31094,
2010-10-06, 02:04:04,VALID,917.337,VALID,0,VALID,97.1757,VALID,0,VALID,18.668,VALID,3,VALID,1.22852,
2010-10-06, 02:05:04,VALID,917.338,VALID,0,VALID,97.0994,VALID,0,VALID,18.707,VALID,17,VALID,1.54844,
2010-10-06, 02:06:04,VALID,917.299,VALID,0,VALID,97.1223,VALID,0,VALID,18.7279,VALID,26,VALID,1.46875,
2010-10-06, 02:07:04,VALID,917.281,VALID,0,VALID,97.0842,VALID,0,VALID,18.7084,VALID,342,VALID,1.48945,
2010-10-06, 02:08:04,VALID,917.27,VALID,0,VALID,97.0537,VALID,0,VALID,18.6889,VALID,20,VALID,1.95664,
2010-10-06, 02:09:04,VALID,917.249,VALID,0,VALID,97.008,VALID,0,VALID,18.668,VALID,7,VALID,1.76953,
2010-10-06, 02:10:04,VALID,917.238,VALID,0.2,VALID,97.0003,VALID,0,VALID,18.6499,VALID,7,VALID,1.44922,
2010-10-06, 02:11:04,VALID,917.182,VALID,0,VALID,97.0232,VALID,0,VALID,18.6694,VALID,7,VALID,1.29219,
2010-10-06, 02:12:04,VALID,917.171,VALID,0,VALID,97.0461,VALID,0,VALID,18.6499,VALID,7,VALID,1.01016,
2010-10-06, 02:13:04,VALID,917.148,VALID,0,VALID,97.0385,VALID,0,VALID,18.6304,VALID,8,VALID,1.12383,
2010-10-06, 02:14:04,VALID,917.095,VALID,0,VALID,97.0766,VALID,0.107441,VALID,18.6304,VALID,7,VALID,0.697266,
2010-10-06, 02:15:04,VALID,917.09,VALID,0,VALID,97.069,VALID,0,VALID,18.6109,VALID,343,VALID,1.16328,
2010-10-06, 02:16:04,VALID,917.093,VALID,0,VALID,97.0613,VALID,0,VALID,18.6109,VALID,357,VALID,1.04492,
2010-10-06, 02:17:04,VALID,917.08,VALID,0,VALID,97.0613,VALID,0,VALID,18.5914,VALID,8,VALID,0.984766,
2010-10-06, 02:18:04,VALID,917.121,VALID,0,VALID,97.0766,VALID,0,VALID,18.5914,VALID,8,VALID,0.895312,
2010-10-06, 02:19:04,VALID,917.073,VALID,0,VALID,97.0537,VALID,0,VALID,18.6109,VALID,8,VALID,0.888672,
2010-10-06, 02:20:04,VALID,917.074,VALID,0,VALID,97.0613,VALID,0,VALID,18.5914,VALID,7,VALID,1.29258,
2010-10-06, 02:21:04,VALID,917.086,VALID,0,VALID,97.0842,VALID,0,VALID,18.6304,VALID,27,VALID,1.46094,
2010-10-06, 02:22:04,VALID,917.101,VALID,0,VALID,97.0461,VALID,0,VALID,18.6304,VALID,4,VALID,1.38633,
2010-10-06, 02:23:04,VALID,917.104,VALID,0,VALID,96.9851,VALID,0,VALID,18.6304,VALID,4,VALID,1.18438,
2010-10-06, 02:24:04,VALID,917.112,VALID,0,VALID,96.9775,VALID,0,VALID,18.6485,VALID,4,VALID,0.825781,
2010-10-06, 02:25:04,VALID,917.147,VALID,0,VALID,96.9622,VALID,0,VALID,18.6499,VALID,4,VALID,1.08281,
2010-10-06, 02:26:04,VALID,917.13,VALID,0,VALID,96.9698,VALID,0,VALID,18.6694,VALID,4,VALID,0.790625,
2010-10-06, 02:27:04,VALID,917.139,VALID,0,VALID,96.9089,VALID,0,VALID,18.6095,VALID,4,VALID,0.835547,
2010-10-06, 02:28:04,VALID,917.121,VALID,0,VALID,96.9089,VALID,0,VALID,18.6499,VALID,4,VALID,1.53047,
2010-10-06, 02:29:04,VALID,917.077,VALID,0,VALID,96.8555,VALID,0,VALID,18.6485,VALID,4,VALID,1.25469,
2010-10-06, 02:30:04,VALID,917.065,VALID,0,VALID,96.8021,VALID,0,VALID,18.668,VALID,5,VALID,1.30547,
2010-10-06, 02:31:04,VALID,917.05,VALID,0,VALID,96.7488,VALID,0,VALID,18.6875,VALID,4,VALID,1.39805,
2010-10-06, 02:32:04,VALID,917.015,VALID,0,VALID,96.703,VALID,0,VALID,18.7084,VALID,4,VALID,1.13164,
2010-10-06, 02:33:04,VALID,916.995,VALID,0,VALID,96.6344,VALID,0,VALID,18.7084,VALID,4,VALID,1.51016,
2010-10-06, 02:34:04,VALID,916.998,VALID,0,VALID,96.5658,VALID,0,VALID,18.7474,VALID,4,VALID,0.74375,
2010-10-06, 02:35:04,VALID,916.963,VALID,0,VALID,96.4972,VALID,0,VALID,18.746,VALID,318,VALID,1.0125,
2010-10-06, 02:36:04,VALID,916.922,VALID,0,VALID,96.3829,VALID,0,VALID,18.7864,VALID,318,VALID,1.03945,
2010-10-06, 02:37:04,VALID,916.9,VALID,0,VALID,96.2837,VALID,0,VALID,18.8059,VALID,318,VALID,0.339063,
2010-10-06, 02:38:04,VALID,916.885,VALID,0,VALID,96.1541,VALID,0,VALID,18.8254,VALID,318,VALID,0.7,
2010-10-06, 02:39:04,VALID,916.851,VALID,0,VALID,96.0855,VALID,0,VALID,18.8254,VALID,318,VALID,0.423047,
2010-10-06, 02:40:04,VALID,916.821,VALID,0,VALID,96.0322,VALID,0,VALID,18.8254,VALID,318,VALID,0.518359,
2010-10-06, 02:41:04,VALID,916.785,VALID,0,VALID,95.9788,VALID,0,VALID,18.7864,VALID,318,VALID,0.518359,
2010-10-06, 02:42:04,VALID,916.753,VALID,0,VALID,95.9788,VALID,0,VALID,18.8059,VALID,36,VALID,1.10898,
2010-10-06, 02:43:04,VALID,916.764,VALID,0,VALID,95.9941,VALID,0,VALID,18.8254,VALID,36,VALID,0.500781,
2010-10-06, 02:44:04,VALID,916.744,VALID,0,VALID,96.0017,VALID,0,VALID,18.8059,VALID,36,VALID,0.869922,
2010-10-06, 02:45:04,VALID,916.71,VALID,0,VALID,95.9941,VALID,0,VALID,18.7864,VALID,358,VALID,1.00117,
2010-10-06, 02:46:04,VALID,916.724,VALID,0,VALID,96.0093,VALID,0,VALID,18.7864,VALID,351,VALID,0.5625,
2010-10-06, 02:47:04,VALID,916.708,VALID,0,VALID,96.0627,VALID,0,VALID,18.7864,VALID,351,VALID,0.19375,
2010-10-06, 02:48:04,VALID,916.686,VALID,0,VALID,96.0779,VALID,0,VALID,18.8059,VALID,351,VALID,0.110547,
2010-10-06, 02:49:04,VALID,916.666,VALID,0,VALID,96.1008,VALID,0,VALID,18.7864,VALID,351,VALID,0.117578,
2010-10-06, 02:50:04,VALID,916.662,VALID,0,VALID,96.1389,VALID,0,VALID,18.7669,VALID,351,VALID,0.298047,
2010-10-06, 02:51:04,VALID,916.664,VALID,0,VALID,96.1846,VALID,0,VALID,18.7669,VALID,351,VALID,0,
2010-10-06, 02:52:04,VALID,916.634,VALID,0,VALID,96.2533,VALID,0,VALID,18.7474,VALID,351,VALID,0.244922,
2010-10-06, 02:53:04,VALID,916.584,VALID,0,VALID,96.3142,VALID,0,VALID,18.7279,VALID,351,VALID,0.0359375,
2010-10-06, 02:54:04,VALID,916.585,VALID,0,VALID,96.3447,VALID,0,VALID,18.7279,VALID,351,VALID,0.482812,
2010-10-06, 02:55:04,VALID,916.551,VALID,0,VALID,96.3447,VALID,0,VALID,18.6889,VALID,351,VALID,0.563672,
2010-10-06, 02:56:04,VALID,916.529,VALID,0,VALID,96.36,VALID,0,VALID,18.7084,VALID,351,VALID,0.196484,
2010-10-06, 02:57:04,VALID,916.514,VALID,0,VALID,96.3829,VALID,0,VALID,18.6875,VALID,351,VALID,0.0292969,
2010-10-06, 02:58:04,VALID,916.495,VALID,0,VALID,96.4362,VALID,0,VALID,18.6889,VALID,351,VALID,0,
2010-10-06, 02:59:04,VALID,916.489,VALID,0,VALID,96.4438,VALID,0,VALID,18.7084,VALID,351,VALID,0,
2010-10-06, 03:00:04,VALID,916.474,VALID,0,VALID,96.4972,VALID,0,VALID,18.6889,VALID,351,VALID,0.0777344,
2010-10-06, 03:01:04,VALID,916.475,VALID,0,VALID,96.4896,VALID,0,VALID,18.6889,VALID,351,VALID,0.0972656,
2010-10-06, 03:02:04,VALID,916.457,VALID,0,VALID,96.5201,VALID,0,VALID,18.6889,VALID,351,VALID,0.059375,
2010-10-06, 03:03:04,VALID,916.452,VALID,0,VALID,96.5353,VALID,0,VALID,18.6694,VALID,351,VALID,0,
2010-10-06, 03:04:04,VALID,916.455,VALID,0,VALID,96.5429,VALID,0,VALID,18.6485,VALID,351,VALID,0,
2010-10-06, 03:05:04,VALID,916.477,VALID,0,VALID,96.5506,VALID,0,VALID,18.6694,VALID,351,VALID,0,
2010-10-06, 03:06:04,VALID,916.473,VALID,0,VALID,96.5658,VALID,0,VALID,18.6694,VALID,351,VALID,0,
2010-10-06, 03:07:04,VALID,916.478,VALID,0,VALID,96.5887,VALID,0,VALID,18.6694,VALID,351,VALID,0.217578,
2010-10-06, 03:08:04,VALID,916.504,VALID,0,VALID,96.5201,VALID,0,VALID,18.6694,VALID,351,VALID,0.5125,
2010-10-06, 03:09:04,VALID,916.491,VALID,0,VALID,96.5277,VALID,0,VALID,18.6499,VALID,351,VALID,0.526563,
2010-10-06, 03:10:04,VALID,916.467,VALID,0,VALID,96.5048,VALID,0,VALID,18.6889,VALID,351,VALID,0.625781,
2010-10-06, 03:11:04,VALID,916.481,VALID,0,VALID,96.4819,VALID,0,VALID,18.6694,VALID,351,VALID,0.481641,
2010-10-06, 03:12:04,VALID,916.463,VALID,0,VALID,96.421,VALID,0,VALID,18.6694,VALID,351,VALID,0.239844,
2010-10-06, 03:13:04,VALID,916.447,VALID,0,VALID,96.3829,VALID,0.107441,VALID,18.6889,VALID,351,VALID,0.3,
2010-10-06, 03:14:04,VALID,916.433,VALID,0,VALID,96.3676,VALID,0,VALID,18.7084,VALID,351,VALID,0.325391,
2010-10-06, 03:15:04,VALID,916.45,VALID,0,VALID,96.3371,VALID,0,VALID,18.7279,VALID,351,VALID,0.266016,
2010-10-06, 03:16:04,VALID,916.418,VALID,0,VALID,96.3524,VALID,0,VALID,18.6875,VALID,351,VALID,0.330469,
2010-10-06, 03:17:04,VALID,916.422,VALID,0,VALID,96.2837,VALID,0,VALID,18.7084,VALID,351,VALID,0.246484,
2010-10-06, 03:18:04,VALID,916.412,VALID,0,VALID,96.299,VALID,0,VALID,18.6889,VALID,351,VALID,0,
2010-10-06, 03:19:04,VALID,916.414,VALID,0,VALID,96.3295,VALID,0,VALID,18.7084,VALID,351,VALID,0,
2010-10-06, 03:20:04,VALID,916.434,VALID,0,VALID,96.36,VALID,0.107441,VALID,18.6485,VALID,351,VALID,0,
2010-10-06, 03:21:04,VALID,916.434,VALID,0,VALID,96.3295,VALID,0,VALID,18.6694,VALID,351,VALID,0.239844,
2010-10-06, 03:22:04,VALID,916.439,VALID,0,VALID,96.2685,VALID,0,VALID,18.6109,VALID,351,VALID,0.716406,
2010-10-06, 03:23:04,VALID,916.458,VALID,0,VALID,96.3829,VALID,0,VALID,18.5705,VALID,351,VALID,0.929297,
2010-10-06, 03:24:04,VALID,916.45,VALID,0,VALID,96.4515,VALID,0,VALID,18.5705,VALID,351,VALID,0.75,
2010-10-06, 03:25:04,VALID,916.448,VALID,0,VALID,96.5353,VALID,0,VALID,18.6499,VALID,351,VALID,0.455859,
2010-10-06, 03:26:04,VALID,916.422,VALID,0,VALID,96.5048,VALID,0,VALID,18.5914,VALID,351,VALID,0.646094,
2010-10-06, 03:27:04,VALID,916.444,VALID,0,VALID,96.5124,VALID,0,VALID,18.6304,VALID,351,VALID,0.558594,
2010-10-06, 03:28:04,VALID,916.385,VALID,0,VALID,96.5353,VALID,0,VALID,18.5914,VALID,13,VALID,0.944922,
2010-10-06, 03:29:04,VALID,916.38,VALID,0,VALID,96.3524,VALID,0,VALID,18.6109,VALID,14,VALID,1.25664,
2010-10-06, 03:30:04,VALID,916.371,VALID,0,VALID,96.2685,VALID,0,VALID,18.6304,VALID,18,VALID,1.24375,
2010-10-06, 03:31:04,VALID,916.379,VALID,0,VALID,96.116,VALID,0,VALID,18.7084,VALID,29,VALID,1.05781,
2010-10-06, 03:32:04,VALID,916.383,VALID,0,VALID,96.0474,VALID,0.107441,VALID,18.6875,VALID,29,VALID,0.822266,
2010-10-06, 03:33:04,VALID,916.386,VALID,0,VALID,95.9864,VALID,0,VALID,18.7279,VALID,29,VALID,0.651953,
2010-10-06, 03:34:04,VALID,916.41,VALID,0,VALID,95.9331,VALID,0,VALID,18.7474,VALID,29,VALID,0.278516,
2010-10-06, 03:35:04,VALID,916.397,VALID,0,VALID,95.9636,VALID,0,VALID,18.7279,VALID,29,VALID,0.271875,
2010-10-06, 03:36:04,VALID,916.381,VALID,0,VALID,95.9864,VALID,0,VALID,18.6875,VALID,29,VALID,0.180078,
2010-10-06, 03:37:04,VALID,916.364,VALID,0,VALID,96.0017,VALID,0.107441,VALID,18.7279,VALID,29,VALID,0.948828,
2010-10-06, 03:38:04,VALID,916.37,VALID,0,VALID,95.9941,VALID,0,VALID,18.6694,VALID,29,VALID,0.631641,
2010-10-06, 03:39:04,VALID,916.348,VALID,0,VALID,96.0093,VALID,0,VALID,18.6889,VALID,29,VALID,0.521094,
2010-10-06, 03:40:04,VALID,916.346,VALID,0,VALID,96.0932,VALID,0,VALID,18.668,VALID,29,VALID,0.513672,
2010-10-06, 03:41:04,VALID,916.354,VALID,0,VALID,96.1236,VALID,0,VALID,18.668,VALID,29,VALID,0.330859,
2010-10-06, 03:42:04,VALID,916.346,VALID,0,VALID,96.1618,VALID,0,VALID,18.668,VALID,29,VALID,0.548437,
2010-10-06, 03:43:04,VALID,916.356,VALID,0,VALID,96.2228,VALID,0,VALID,18.707,VALID,29,VALID,0.445703,
2010-10-06, 03:44:04,VALID,916.312,VALID,0,VALID,96.2075,VALID,0,VALID,18.668,VALID,29,VALID,0.749219,
2010-10-06, 03:45:04,VALID,916.299,VALID,0,VALID,96.177,VALID,0,VALID,18.668,VALID,29,VALID,0.805469,
2010-10-06, 03:46:04,VALID,916.332,VALID,0,VALID,96.2228,VALID,0,VALID,18.6889,VALID,29,VALID,0.479297,
2010-10-06, 03:47:04,VALID,916.306,VALID,0,VALID,96.177,VALID,0,VALID,18.6889,VALID,29,VALID,0.553516,